Flag for U.S.A. Weather past 2 weeks in Medford, Oregon, U.S.A.

Now
60 °F

Clear.


Feels Like: 60 °F
Forecast: 58 / 86 °F
Wind: No wind

Location: Rogue Valley International Airport

Current Time: Sep 16, 2014 at 4:46:34 AM

Latest Report: Sep 16, 2014 at 3:53 AM


Visibility: 10 mi

Pressure: 29.85 "Hg

Humidity: 60%

Dew point: 46 °F

Location of MedfordLocation

Historic Weather in Medford — Graph

°F

Medford temperature yesterday

Maximum temperature yesterday: 96 °F (at 3:53 PM)
Minimum temperature yesterday: 58 °F (at 5:53 AM)
Average temperature yesterday: 75 °F

Past Weeks' High & Low Weather Summary

 TemperatureHumidityPressure
High97 °F (Sep 5, 4:53 PM)80% (Sep 3, 6:53 AM)30.12 "Hg (Sep 3, 6:53 AM)
Low48 °F (Sep 4, 6:53 AM)5% (Sep 5, 4:53 PM)29.68 "Hg (Sep 15, 4:53 PM)
Average72 °F36%29.88 "Hg
* Reported Sep 1 2:53 AM — Sep 16 2:53 AM, Medford, Weather by CustomWeather, © 2014

Note: Actual official high and low records may vary slightly from our data, if they occured in-between our weather recording intervals... More about our weather records

Advertising

Medford weather history for previous 24 hours

 ConditionsComfort  
Time TempWeatherWind HumidityBarometerVisibility
2:53 AM
Sep 16
64 °FClear.3 mph54%29.85 "Hg10 mi
1:53 AM67 °FClear.8 mph47%29.84 "Hg10 mi
12:53 AM69 °FClear.7 mph44%29.83 "Hg10 mi
11:53 PM
Sep 15
71 °FClear.5 mph39%29.82 "Hg10 mi
10:53 PM74 °FClear.10 mph35%29.82 "Hg10 mi
9:53 PM76 °FClear.5 mph31%29.80 "Hg10 mi
8:53 PM79 °FClear.6 mph26%29.78 "Hg10 mi
7:53 PM83 °FPassing clouds.8 mph22%29.75 "Hg10 mi
6:53 PM88 °FPassing clouds.5 mph18%29.72 "Hg10 mi
5:53 PM93 °FScattered clouds.13 mph14%29.69 "Hg10 mi
4:53 PM95 °FSunny.10 mph15%29.68 "Hg10 mi
3:53 PM96 °FPassing clouds.14 mph13%29.69 "Hg10 mi
2:53 PM95 °FSunny.10 mph15%29.71 "Hg10 mi
1:53 PM90 °FSunny.3 mph17%29.75 "Hg10 mi
12:53 PM85 °FSunny.5 mph22%29.78 "Hg10 mi
11:53 AM77 °FSunny.No wind29%29.82 "Hg10 mi
10:53 AM71 °FSunny.No wind36%29.84 "Hg10 mi
9:53 AM65 °FSunny.No wind49%29.86 "Hg10 mi
8:53 AM61 °FSunny.No wind56%29.86 "Hg10 mi
7:53 AM59 °FSunny.No wind58%29.86 "Hg10 mi
6:53 AM59 °FClear.No wind60%29.85 "Hg10 mi
5:53 AM58 °FClear.No wind60%29.84 "Hg10 mi
4:53 AM59 °FClear.No wind58%29.83 "Hg10 mi
Weather by CustomWeather, © 2014

See weather overviewHow to use our weather pages